Location: *
(33.8649°S, 62.1526°E)
Time: 20:30:27
(UTC+00:00)

Tiangong - Pass Details

Date: 29 September 2021
Orbit: 382 x 385 km, 41.5° (Epoch: 19 October)

Event Time Altitude Azimuth Distance (km) Brightness Sun altitude
Rises 14:14:28 0° 243° (WSW) 2,288 6.6 -5.3°
Reaches altitude 10° 14:16:52 10° 227° (SW) 1,432 4.9 -5.8°
Maximum altitude 14:19:28 22° 174° (S) 929 3.0 -6.4°
Drops below altitude 10° 14:22:03 10° 120° (ESE) 1,430 3.5 -6.9°
Enters shadow 14:22:53 - 113° (ESE) 1,709 3.8 -7.1°
